Location: Livorno
(43.5500°N, 10.3170°E)
Time: 00:44:38
(UTC+02:00)

ISS - Pass Details

Date: 22 May 2026
Orbit: 413 x 422 km, 51.6° (Epoch: 7 June)

Event Time Altitude Azimuth Distance (km) Brightness Sun altitude
Rises 22:38:52 0° 300° (WNW) 2,351 1.4 -16.6°
Reaches altitude 10° 22:40:58 10° 297° (WNW) 1,486 0.0 -16.8°
Maximum altitude 22:44:16 61° 216° (SW) 472 -3.7 -17.1°
Enters shadow 22:44:51 50° 168° (SSE) 533 -3.7 -17.2°
